Location: Unspecified
(0.0000°N, 0.0000°E)
Time: 11:51:17
(UTC+00:00)

Envisat - Pass Details

Date: 24 March 2019
Orbit: 764 x 766 km, 98.2° (Epoch: 24 March)

Event Time Altitude Azimuth Distance (km) Brightness Sun altitude
Rises 18:50:41 0° 163° (SSE) 3,230 6.0 -11.1°
Reaches altitude 10° 18:53:01 10° 160° (SSE) 2,301 5.3 -11.7°
Maximum altitude 18:58:02 66° 78° (ENE) 830 2.9 -12.9°
Drops below altitude 10° 19:03:03 10° 356° (N) 2,291 5.5 -14.2°
Sets 19:05:21 0° 354° (N) 3,213 6.3 -14.8°
